Time,TemperatureF,DewpointF,PressureIn,WindDirection,WindDirectionDegrees,WindSpeedMPH,WindSpeedGustMPH,Humidity,HourlyPrecipIn,Conditions,Clouds,dailyrainin,SoftwareType,DateUTC
2013-04-02 00:00:00,67.6,64.2,30.04,WNW,298,0.0,1.0,89,0.00,,,0.00,meteohub,2013-04-02 04:00:00,
2013-04-02 00:02:00,67.6,64.2,30.04,WNW,298,2.0,2.0,89,0.00,,,0.00,meteohub,2013-04-02 04:02:00,
2013-04-02 00:03:00,67.6,64.2,30.04,WNW,298,0.0,1.0,89,0.00,,,0.00,meteohub,2013-04-02 04:03:00,
2013-04-02 00:08:00,67.6,64.2,30.04,WNW,298,0.0,2.0,89,0.00,,,0.00,meteohub,2013-04-02 04:08:00,
2013-04-02 00:13:00,67.6,64.2,30.04,WNW,298,0.0,2.0,89,0.00,,,0.00,meteohub,2013-04-02 04:13:00,
2013-04-02 00:18:00,67.5,64.0,30.04,WNW,298,0.0,2.0,89,0.00,,,0.00,meteohub,2013-04-02 04:18:00,
2013-04-02 00:23:00,67.5,64.0,30.04,WNW,298,0.0,1.0,89,0.00,,,0.00,meteohub,2013-04-02 04:23:00,
2013-04-02 00:28:00,67.3,64.2,30.04,WNW,298,0.0,0.0,90,0.00,,,0.00,meteohub,2013-04-02 04:28:00,
2013-04-02 00:34:00,67.3,64.2,30.04,WNW,298,0.0,0.0,90,0.00,,,0.00,meteohub,2013-04-02 04:34:00,
2013-04-02 00:39:00,67.3,64.2,30.04,WNW,298,0.0,0.0,90,0.00,,,0.00,meteohub,2013-04-02 04:39:00,
2013-04-02 00:44:00,67.1,64.0,30.04,WNW,298,0.0,0.0,90,0.00,,,0.00,meteohub,2013-04-02 04:44:00,
2013-04-02 00:49:00,66.9,63.9,30.03,WNW,298,0.0,0.0,90,0.00,,,0.00,meteohub,2013-04-02 04:49:00,
2013-04-02 00:54:00,66.9,63.9,30.03,WNW,298,0.0,0.0,90,0.00,,,0.00,meteohub,2013-04-02 04:54:00,
2013-04-02 01:00:00,66.9,63.9,30.03,WNW,298,0.0,2.0,90,0.00,,,0.00,meteohub,2013-04-02 05:00:00,
2013-04-02 01:05:00,66.9,63.9,30.03,WNW,298,0.0,2.0,90,0.00,,,0.00,meteohub,2013-04-02 05:05:00,
2013-04-02 01:10:00,66.7,63.7,30.03,WNW,298,0.0,1.0,90,0.00,,,0.00,meteohub,2013-04-02 05:10:00,
2013-04-02 01:15:00,66.7,63.7,30.03,WNW,298,0.0,1.0,90,0.00,,,0.00,meteohub,2013-04-02 05:15:00,
2013-04-02 01:20:00,66.7,63.7,30.02,WNW,298,0.0,1.0,90,0.00,,,0.00,meteohub,2013-04-02 05:20:00,
2013-04-02 01:26:00,66.6,63.9,30.03,WNW,298,0.0,2.0,91,0.00,,,0.00,meteohub,2013-04-02 05:26:00,
2013-04-02 01:31:00,66.6,63.9,30.03,WNW,298,0.0,2.0,91,0.00,,,0.00,meteohub,2013-04-02 05:31:00,
2013-04-02 01:36:00,66.4,63.7,30.03,WNW,298,0.0,2.0,91,0.00,,,0.00,meteohub,2013-04-02 05:36:00,
2013-04-02 01:41:00,66.6,63.9,30.03,WNW,298,0.0,2.0,91,0.00,,,0.00,meteohub,2013-04-02 05:41:00,
2013-04-02 01:46:00,66.4,63.7,30.02,WNW,298,0.0,2.0,91,0.00,,,0.00,meteohub,2013-04-02 05:46:00,
2013-04-02 01:52:00,66.4,63.7,30.02,WNW,298,0.0,2.0,91,0.00,,,0.00,meteohub,2013-04-02 05:52:00,
2013-04-02 01:57:00,66.4,63.3,30.02,WNW,298,0.0,2.0,90,0.00,,,0.00,meteohub,2013-04-02 05:57:00,
2013-04-02 02:02:00,66.4,63.3,30.02,WNW,298,0.0,2.0,90,0.00,,,0.00,meteohub,2013-04-02 06:02:00,
2013-04-02 02:07:00,66.4,63.3,30.02,WNW,298,0.0,0.0,90,0.00,,,0.00,meteohub,2013-04-02 06:07:00,
2013-04-02 02:12:00,66.2,63.1,30.02,WNW,298,0.0,2.0,90,0.00,,,0.00,meteohub,2013-04-02 06:12:00,
2013-04-02 02:17:00,66.2,63.5,30.02,WNW,298,0.0,2.0,91,0.00,,,0.00,meteohub,2013-04-02 06:17:00,
2013-04-02 02:22:00,66.0,63.3,30.02,WNW,298,0.0,3.0,91,0.00,,,0.00,meteohub,2013-04-02 06:22:00,
2013-04-02 02:27:00,66.0,63.0,30.02,WNW,298,0.0,3.0,90,0.00,,,0.00,meteohub,2013-04-02 06:27:00,
2013-04-02 02:32:00,66.0,63.0,30.02,WNW,298,1.0,3.0,90,0.00,,,0.00,meteohub,2013-04-02 06:32:00,
2013-04-02 02:38:00,65.8,62.8,30.02,WNW,298,2.0,2.0,90,0.00,,,0.00,meteohub,2013-04-02 06:38:00,
2013-04-02 02:43:00,65.8,62.8,30.02,WNW,298,1.0,2.0,90,0.00,,,0.00,meteohub,2013-04-02 06:43:00,
2013-04-02 02:48:00,65.8,63.1,30.02,WNW,298,0.0,3.0,91,0.00,,,0.00,meteohub,2013-04-02 06:48:00,
2013-04-02 02:53:00,65.8,62.8,30.02,WNW,298,3.0,3.0,90,0.00,,,0.00,meteohub,2013-04-02 06:53:00,
2013-04-02 02:59:00,65.8,62.8,30.02,WNW,298,0.0,4.0,90,0.00,,,0.00,meteohub,2013-04-02 06:59:00,
2013-04-02 03:04:00,65.7,63.0,30.02,WNW,298,0.0,4.0,91,0.00,,,0.00,meteohub,2013-04-02 07:04:00,
2013-04-02 03:10:00,65.7,63.0,30.02,WNW,298,2.0,3.0,91,0.00,,,0.00,meteohub,2013-04-02 07:10:00,
2013-04-02 03:15:00,65.7,63.0,30.02,WNW,298,0.0,3.0,91,0.00,,,0.00,meteohub,2013-04-02 07:15:00,
2013-04-02 03:21:00,65.7,63.0,30.02,WNW,298,2.0,4.0,91,0.00,,,0.00,meteohub,2013-04-02 07:21:00,
2013-04-02 03:26:00,65.7,63.0,30.02,WNW,298,1.0,4.0,91,0.00,,,0.00,meteohub,2013-04-02 07:26:00,
2013-04-02 03:31:00,65.7,63.0,30.02,WNW,298,1.0,4.0,91,0.00,,,0.00,meteohub,2013-04-02 07:31:00,
2013-04-02 03:37:00,65.7,62.6,30.02,WNW,298,0.0,4.0,90,0.00,,,0.00,meteohub,2013-04-02 07:37:00,
2013-04-02 03:42:00,65.8,62.8,30.02,WNW,298,0.0,4.0,90,0.00,,,0.00,meteohub,2013-04-02 07:42:00,
2013-04-02 03:47:00,65.8,62.8,30.02,WNW,298,1.0,3.0,90,0.00,,,0.00,meteohub,2013-04-02 07:47:00,
2013-04-02 03:52:00,65.8,62.8,30.02,WNW,298,0.0,3.0,90,0.00,,,0.00,meteohub,2013-04-02 07:52:00,
2013-04-02 03:57:00,65.8,62.8,30.02,WNW,298,0.0,3.0,90,0.00,,,0.00,meteohub,2013-04-02 07:57:00,
2013-04-02 04:02:00,65.8,62.8,30.02,WNW,298,0.0,3.0,90,0.00,,,0.00,meteohub,2013-04-02 08:02:00,
2013-04-02 04:07:00,65.8,62.8,30.02,WNW,298,0.0,3.0,90,0.00,,,0.00,meteohub,2013-04-02 08:07:00,
2013-04-02 04:12:00,65.8,62.4,30.02,WNW,298,0.0,3.0,89,0.00,,,0.00,meteohub,2013-04-02 08:12:00,
2013-04-02 04:17:00,65.8,62.4,30.02,WNW,298,0.0,2.0,89,0.00,,,0.00,meteohub,2013-04-02 08:17:00,
2013-04-02 04:22:00,65.8,62.4,30.02,WNW,298,0.0,0.0,89,0.00,,,0.00,meteohub,2013-04-02 08:22:00,
2013-04-02 04:27:00,65.8,62.4,30.02,WNW,298,0.0,2.0,89,0.00,,,0.00,meteohub,2013-04-02 08:27:00,
2013-04-02 04:32:00,65.8,62.4,30.03,WNW,298,0.0,2.0,89,0.00,,,0.00,meteohub,2013-04-02 08:32:00,
2013-04-02 04:37:00,65.8,62.4,30.03,WNW,298,0.0,2.0,89,0.00,,,0.00,meteohub,2013-04-02 08:37:00,
2013-04-02 04:42:00,65.8,62.4,30.03,WNW,298,0.0,2.0,89,0.00,,,0.00,meteohub,2013-04-02 08:42:00,
2013-04-02 04:48:00,66.0,62.6,30.03,WNW,298,1.0,2.0,89,0.00,,,0.00,meteohub,2013-04-02 08:48:00,
2013-04-02 04:53:00,66.0,62.6,30.03,WNW,298,2.0,2.0,89,0.00,,,0.00,meteohub,2013-04-02 08:53:00,
2013-04-02 04:58:00,66.4,63.0,30.03,WNW,298,2.0,2.0,89,0.00,,,0.00,meteohub,2013-04-02 08:58:00,
2013-04-02 05:03:00,66.6,63.0,30.03,WNW,298,0.0,3.0,88,0.00,,,0.00,meteohub,2013-04-02 09:03:00,
2013-04-02 05:09:00,66.7,63.1,30.03,WNW,298,0.0,5.0,88,0.00,,,0.00,meteohub,2013-04-02 09:09:00,
2013-04-02 05:14:00,66.7,62.8,30.03,WNW,298,1.0,5.0,87,0.00,,,0.00,meteohub,2013-04-02 09:14:00,
2013-04-02 05:19:00,66.7,62.8,30.03,WNW,298,0.0,3.0,87,0.00,,,0.00,meteohub,2013-04-02 09:19:00,
2013-04-02 05:24:00,66.6,62.6,30.03,WNW,298,0.0,3.0,87,0.00,,,0.00,meteohub,2013-04-02 09:24:00,
2013-04-02 05:29:00,66.6,62.2,30.03,WNW,298,0.0,3.0,86,0.00,,,0.00,meteohub,2013-04-02 09:29:00,
2013-04-02 05:35:00,66.4,62.1,30.03,WNW,298,0.0,2.0,86,0.00,,,0.00,meteohub,2013-04-02 09:35:00,
2013-04-02 05:40:00,66.2,61.9,30.03,WNW,298,0.0,3.0,86,0.00,,,0.00,meteohub,2013-04-02 09:40:00,
2013-04-02 05:45:00,66.0,61.7,30.03,WNW,298,0.0,3.0,86,0.00,,,0.00,meteohub,2013-04-02 09:45:00,
2013-04-02 05:51:00,66.0,61.7,30.03,WNW,298,0.0,3.0,86,0.00,,,0.00,meteohub,2013-04-02 09:51:00,
2013-04-02 05:56:00,65.8,61.5,30.03,WNW,298,1.0,2.0,86,0.00,,,0.00,meteohub,2013-04-02 09:56:00,
2013-04-02 06:01:00,65.8,61.5,30.03,WNW,298,1.0,3.0,86,0.00,,,0.00,meteohub,2013-04-02 10:01:00,
2013-04-02 06:07:00,65.8,61.5,30.03,WNW,298,0.0,3.0,86,0.00,,,0.00,meteohub,2013-04-02 10:07:00,
2013-04-02 06:12:00,65.7,61.3,30.03,WNW,298,0.0,3.0,86,0.00,,,0.00,meteohub,2013-04-02 10:12:00,
2013-04-02 06:17:00,65.7,61.3,30.03,WNW,298,0.0,3.0,86,0.00,,,0.00,meteohub,2013-04-02 10:17:00,
2013-04-02 06:22:00,65.5,61.2,30.04,WNW,298,1.0,3.0,86,0.00,,,0.00,meteohub,2013-04-02 10:22:00,
2013-04-02 06:27:00,65.5,61.2,30.04,WNW,298,0.0,3.0,86,0.00,,,0.00,meteohub,2013-04-02 10:27:00,
2013-04-02 06:32:00,65.5,61.2,30.04,WNW,298,0.0,3.0,86,0.00,,,0.00,meteohub,2013-04-02 10:32:00,
2013-04-02 06:37:00,65.3,61.0,30.04,WNW,298,0.0,2.0,86,0.00,,,0.00,meteohub,2013-04-02 10:37:00,
2013-04-02 06:42:00,65.1,60.8,30.04,WNW,298,1.0,1.0,86,0.00,,,0.00,meteohub,2013-04-02 10:42:00,
2013-04-02 06:47:00,65.1,60.8,30.04,WNW,298,0.0,1.0,86,0.00,,,0.00,meteohub,2013-04-02 10:47:00,
2013-04-02 06:52:00,64.9,60.6,30.05,WNW,298,0.0,3.0,86,0.00,,,0.00,meteohub,2013-04-02 10:52:00,
2013-04-02 06:58:00,64.9,61.0,30.05,WNW,298,2.0,3.0,87,0.00,,,0.00,meteohub,2013-04-02 10:58:00,
2013-04-02 07:03:00,64.9,61.0,30.05,WNW,298,1.0,3.0,87,0.00,,,0.00,meteohub,2013-04-02 11:03:00,
2013-04-02 07:08:00,64.8,60.8,30.05,WNW,298,1.0,3.0,87,0.00,,,0.00,meteohub,2013-04-02 11:08:00,
2013-04-02 07:13:00,64.8,60.8,30.05,WNW,298,0.0,3.0,87,0.00,,,0.00,meteohub,2013-04-02 11:13:00,
2013-04-02 07:18:00,64.8,60.8,30.06,WNW,298,0.0,3.0,87,0.00,,,0.00,meteohub,2013-04-02 11:18:00,
2013-04-02 07:24:00,64.8,60.8,30.06,WNW,298,0.0,3.0,87,0.00,,,0.00,meteohub,2013-04-02 11:24:00,
2013-04-02 07:29:00,64.8,60.8,30.06,WNW,298,1.0,3.0,87,0.00,,,0.00,meteohub,2013-04-02 11:29:00,
2013-04-02 07:34:00,64.8,60.8,30.06,WNW,298,0.0,3.0,87,0.00,,,0.00,meteohub,2013-04-02 11:34:00,
2013-04-02 07:39:00,64.8,60.8,30.06,WNW,298,0.0,3.0,87,0.00,,,0.00,meteohub,2013-04-02 11:39:00,
2013-04-02 07:44:00,64.9,61.0,30.07,WNW,298,0.0,3.0,87,0.00,,,0.00,meteohub,2013-04-02 11:44:00,
2013-04-02 07:50:00,65.1,61.2,30.07,WNW,298,0.0,4.0,87,0.00,,,0.00,meteohub,2013-04-02 11:50:00,
2013-04-02 07:55:00,65.3,61.0,30.07,WNW,298,0.0,4.0,86,0.00,,,0.00,meteohub,2013-04-02 11:55:00,
2013-04-02 08:00:00,65.5,61.2,30.07,WNW,298,0.0,2.0,86,0.00,,,0.00,meteohub,2013-04-02 12:00:00,
2013-04-02 08:05:00,65.7,61.3,30.08,WNW,298,2.0,3.0,86,0.00,,,0.00,meteohub,2013-04-02 12:05:00,
2013-04-02 08:10:00,65.8,61.5,30.08,WNW,298,0.0,3.0,86,0.00,,,0.00,meteohub,2013-04-02 12:10:00,
2013-04-02 08:15:00,66.0,61.7,30.08,WNW,298,0.0,4.0,86,0.00,,,0.00,meteohub,2013-04-02 12:15:00,
2013-04-02 08:21:00,66.6,62.2,30.08,WNW,298,1.0,4.0,86,0.00,,,0.00,meteohub,2013-04-02 12:21:00,
2013-04-02 08:27:00,66.7,62.1,30.08,WNW,298,3.0,4.0,85,0.00,,,0.00,meteohub,2013-04-02 12:27:00,
2013-04-02 08:32:00,66.9,62.2,30.08,WNW,301,4.0,4.0,85,0.00,,,0.00,meteohub,2013-04-02 12:32:00,
2013-04-02 08:37:00,67.3,62.2,30.08,NW,317,1.0,5.0,84,0.00,,,0.00,meteohub,2013-04-02 12:37:00,
2013-04-02 08:42:00,67.3,62.2,30.08,NW,316,1.0,6.0,84,0.00,,,0.00,meteohub,2013-04-02 12:42:00,
2013-04-02 08:48:00,67.5,62.4,30.08,NW,312,2.0,6.0,84,0.00,,,0.00,meteohub,2013-04-02 12:48:00,
2013-04-02 08:53:00,67.5,62.4,30.08,NW,319,5.0,7.0,84,0.00,,,0.00,meteohub,2013-04-02 12:53:00,
2013-04-02 08:58:00,67.6,62.6,30.09,NW,319,0.0,7.0,84,0.00,,,0.00,meteohub,2013-04-02 12:58:00,
2013-04-02 09:03:00,67.8,62.8,30.09,NW,319,0.0,7.0,84,0.00,,,0.00,meteohub,2013-04-02 13:03:00,
2013-04-02 09:09:00,68.2,62.8,30.09,NW,319,2.0,7.0,83,0.00,,,0.00,meteohub,2013-04-02 13:09:00,
2013-04-02 09:14:00,68.4,63.0,30.09,NW,319,0.0,4.0,83,0.00,,,0.00,meteohub,2013-04-02 13:14:00,
2013-04-02 09:19:00,68.5,63.1,30.09,NW,319,1.0,5.0,83,0.00,,,0.00,meteohub,2013-04-02 13:19:00,
2013-04-02 09:24:00,68.7,63.3,30.09,NW,319,1.0,5.0,83,0.00,,,0.00,meteohub,2013-04-02 13:24:00,
2013-04-02 09:29:00,69.1,63.3,30.09,NW,319,0.0,4.0,82,0.00,,,0.00,meteohub,2013-04-02 13:29:00,
2013-04-02 09:34:00,69.4,63.3,30.09,NW,319,0.0,3.0,81,0.00,,,0.00,meteohub,2013-04-02 13:34:00,
2013-04-02 09:40:00,69.6,63.5,30.09,NW,319,1.0,4.0,81,0.00,,,0.00,meteohub,2013-04-02 13:40:00,
2013-04-02 09:45:00,69.4,63.0,30.10,NW,319,0.0,4.0,80,0.00,,,0.00,meteohub,2013-04-02 13:45:00,
2013-04-02 09:50:00,69.6,63.5,30.10,NW,319,0.0,4.0,81,0.00,,,0.00,meteohub,2013-04-02 13:50:00,
2013-04-02 09:55:00,70.0,63.5,30.10,NW,319,0.0,4.0,80,0.00,,,0.00,meteohub,2013-04-02 13:55:00,
2013-04-02 10:00:00,70.2,63.7,30.10,NW,319,1.0,4.0,80,0.00,,,0.00,meteohub,2013-04-02 14:00:00,
2013-04-02 10:05:00,70.5,64.0,30.10,NW,319,0.0,3.0,80,0.00,,,0.00,meteohub,2013-04-02 14:05:00,
2013-04-02 10:11:00,71.1,64.2,30.10,NW,319,0.0,3.0,79,0.00,,,0.00,meteohub,2013-04-02 14:11:00,
2013-04-02 10:16:00,71.6,64.0,30.10,NW,325,0.0,3.0,77,0.00,,,0.00,meteohub,2013-04-02 14:16:00,
2013-04-02 10:21:00,72.3,64.8,30.10,NNE,24,1.0,3.0,77,0.00,,,0.00,meteohub,2013-04-02 14:21:00,
2013-04-02 10:26:00,73.0,65.5,30.10,NNE,24,0.0,4.0,77,0.00,,,0.00,meteohub,2013-04-02 14:26:00,
2013-04-02 10:31:00,73.6,65.8,30.10,NNE,24,1.0,4.0,77,0.00,,,0.00,meteohub,2013-04-02 14:31:00,
2013-04-02 10:36:00,74.1,65.3,30.10,ENE,69,3.0,3.0,74,0.00,,,0.00,meteohub,2013-04-02 14:36:00,
2013-04-02 10:41:00,74.7,65.1,30.11,East,81,6.0,7.0,72,0.00,,,0.00,meteohub,2013-04-02 14:41:00,
2013-04-02 10:46:00,74.3,65.1,30.11,East,89,1.0,8.0,73,0.00,,,0.00,meteohub,2013-04-02 14:46:00,
2013-04-02 10:51:00,73.9,65.5,30.11,East,98,2.0,8.0,75,0.00,,,0.00,meteohub,2013-04-02 14:51:00,
2013-04-02 10:57:00,73.8,65.3,30.11,East,98,2.0,8.0,75,0.00,,,0.00,meteohub,2013-04-02 14:57:00,
2013-04-02 11:02:00,73.9,65.1,30.11,East,97,1.0,7.0,74,0.00,,,0.00,meteohub,2013-04-02 15:02:00,
2013-04-02 11:07:00,74.3,65.8,30.11,East,94,3.0,7.0,75,0.00,,,0.00,meteohub,2013-04-02 15:07:00,
2013-04-02 11:12:00,74.5,65.7,30.11,East,93,3.0,8.0,74,0.00,,,0.00,meteohub,2013-04-02 15:12:00,
2013-04-02 11:17:00,74.5,65.7,30.11,East,91,5.0,8.0,74,0.00,,,0.00,meteohub,2013-04-02 15:17:00,
2013-04-02 11:22:00,74.5,65.3,30.11,East,89,2.0,8.0,73,0.00,,,0.00,meteohub,2013-04-02 15:22:00,
2013-04-02 11:27:00,74.5,64.9,30.11,East,89,0.0,7.0,72,0.00,,,0.00,meteohub,2013-04-02 15:27:00,
2013-04-02 11:32:00,74.8,65.1,30.11,East,89,6.0,7.0,72,0.00,,,0.00,meteohub,2013-04-02 15:32:00,
2013-04-02 11:37:00,75.4,65.3,30.11,East,88,6.0,7.0,71,0.00,,,0.00,meteohub,2013-04-02 15:37:00,
2013-04-02 11:42:00,75.4,64.9,30.10,East,88,6.0,7.0,70,0.00,,,0.00,meteohub,2013-04-02 15:42:00,
2013-04-02 11:47:00,75.4,65.3,30.10,East,88,5.0,7.0,71,0.00,,,0.00,meteohub,2013-04-02 15:47:00,
2013-04-02 11:52:00,75.6,65.5,30.10,East,87,5.0,7.0,71,0.00,,,0.00,meteohub,2013-04-02 15:52:00,
2013-04-02 11:58:00,75.6,65.5,30.10,East,88,5.0,8.0,71,0.00,,,0.00,meteohub,2013-04-02 15:58:00,
2013-04-02 12:03:00,75.9,65.8,30.10,East,88,3.0,8.0,71,0.00,,,0.00,meteohub,2013-04-02 16:03:00,
2013-04-02 12:08:00,75.9,65.8,30.10,East,88,1.0,8.0,71,0.00,,,0.00,meteohub,2013-04-02 16:08:00,
2013-04-02 12:13:00,75.6,65.5,30.10,East,88,1.0,6.0,71,0.00,,,0.00,meteohub,2013-04-02 16:13:00,
2013-04-02 12:19:00,75.2,65.5,30.10,East,88,1.0,6.0,72,0.00,,,0.00,meteohub,2013-04-02 16:19:00,
2013-04-02 12:24:00,75.6,65.8,30.10,East,88,0.0,5.0,72,0.00,,,0.00,meteohub,2013-04-02 16:24:00,
2013-04-02 12:29:00,76.3,66.6,30.10,East,88,2.0,5.0,72,0.00,,,0.00,meteohub,2013-04-02 16:29:00,
2013-04-02 12:34:00,76.8,66.2,30.10,East,88,0.0,5.0,70,0.00,,,0.00,meteohub,2013-04-02 16:34:00,
2013-04-02 12:39:00,75.9,65.8,30.10,East,89,2.0,5.0,71,0.00,,,0.00,meteohub,2013-04-02 16:39:00,
2013-04-02 12:45:00,76.1,66.4,30.10,East,89,6.0,6.0,72,0.00,,,0.00,meteohub,2013-04-02 16:45:00,
2013-04-02 12:50:00,76.8,66.7,30.10,East,89,1.0,7.0,71,0.00,,,0.00,meteohub,2013-04-02 16:50:00,
2013-04-02 12:55:00,76.8,66.2,30.09,East,96,3.0,7.0,70,0.00,,,0.00,meteohub,2013-04-02 16:55:00,
2013-04-02 13:00:00,76.8,66.7,30.09,East,96,5.0,7.0,71,0.00,,,0.00,meteohub,2013-04-02 17:00:00,
2013-04-02 13:06:00,77.5,67.5,30.09,East,95,2.0,7.0,71,0.00,,,0.00,meteohub,2013-04-02 17:06:00,
2013-04-02 13:11:00,78.3,67.3,30.09,East,94,5.0,7.0,69,0.00,,,0.00,meteohub,2013-04-02 17:11:00,
2013-04-02 13:16:00,78.3,67.3,30.08,East,92,3.0,7.0,69,0.00,,,0.00,meteohub,2013-04-02 17:16:00,
2013-04-02 13:22:00,78.4,67.8,30.09,East,92,3.0,7.0,70,0.00,,,0.00,meteohub,2013-04-02 17:22:00,
2013-04-02 13:27:00,78.4,67.8,30.08,East,92,2.0,7.0,70,0.00,,,0.00,meteohub,2013-04-02 17:27:00,
2013-04-02 13:32:00,78.6,68.0,30.08,East,92,0.0,7.0,70,0.00,,,0.00,meteohub,2013-04-02 17:32:00,
2013-04-02 13:37:00,78.8,67.8,30.08,East,92,1.0,7.0,69,0.00,,,0.00,meteohub,2013-04-02 17:37:00,
2013-04-02 13:43:00,77.7,66.4,30.08,East,92,2.0,5.0,68,0.00,,,0.00,meteohub,2013-04-02 17:43:00,
2013-04-02 13:48:00,76.6,65.7,30.07,East,92,2.0,5.0,69,0.00,,,0.00,meteohub,2013-04-02 17:48:00,
2013-04-02 13:53:00,76.3,66.2,30.07,East,92,1.0,3.0,71,0.00,,,0.00,meteohub,2013-04-02 17:53:00,
2013-04-02 13:59:00,75.9,65.5,30.07,East,92,3.0,3.0,70,0.00,,,0.00,meteohub,2013-04-02 17:59:00,
2013-04-02 14:04:00,75.7,65.7,30.06,East,92,2.0,3.0,71,0.00,,,0.00,meteohub,2013-04-02 18:04:00,
2013-04-02 14:09:00,76.6,65.7,30.06,East,92,2.0,5.0,69,0.00,,,0.00,meteohub,2013-04-02 18:09:00,
2013-04-02 14:14:00,77.7,64.9,30.06,East,92,3.0,5.0,65,0.00,,,0.00,meteohub,2013-04-02 18:14:00,
2013-04-02 14:20:00,78.1,64.0,30.06,East,96,1.0,6.0,62,0.00,,,0.00,meteohub,2013-04-02 18:20:00,
2013-04-02 14:25:00,78.6,64.9,30.06,East,98,2.0,6.0,63,0.00,,,0.00,meteohub,2013-04-02 18:25:00,
2013-04-02 14:30:00,78.1,65.3,30.06,East,98,3.0,6.0,65,0.00,,,0.00,meteohub,2013-04-02 18:30:00,
2013-04-02 14:36:00,78.6,66.7,30.05,East,98,1.0,5.0,67,0.00,,,0.00,meteohub,2013-04-02 18:36:00,
2013-04-02 14:42:00,80.4,66.2,30.05,East,98,2.0,5.0,62,0.00,,,0.00,meteohub,2013-04-02 18:42:00,
2013-04-02 14:47:00,81.3,66.6,30.05,East,98,2.0,5.0,61,0.00,,,0.00,meteohub,2013-04-02 18:47:00,
2013-04-02 14:52:00,80.8,64.6,30.05,East,98,1.0,5.0,58,0.00,,,0.00,meteohub,2013-04-02 18:52:00,
2013-04-02 14:57:00,80.2,63.7,30.05,East,98,0.0,5.0,57,0.00,,,0.00,meteohub,2013-04-02 18:57:00,
2013-04-02 15:02:00,79.7,64.0,30.04,East,98,1.0,3.0,59,0.00,,,0.00,meteohub,2013-04-02 19:02:00,
2013-04-02 15:07:00,79.3,60.3,30.04,East,98,0.0,3.0,52,0.00,,,0.00,meteohub,2013-04-02 19:07:00,
2013-04-02 15:12:00,80.1,60.8,30.04,East,98,2.0,3.0,52,0.00,,,0.00,meteohub,2013-04-02 19:12:00,
2013-04-02 15:17:00,80.2,61.5,30.04,East,98,0.0,2.0,53,0.00,,,0.00,meteohub,2013-04-02 19:17:00,
2013-04-02 15:22:00,80.4,62.2,30.03,East,98,0.0,2.0,54,0.00,,,0.00,meteohub,2013-04-02 19:22:00,
2013-04-02 15:27:00,80.8,61.0,30.03,East,98,1.0,2.0,51,0.00,,,0.00,meteohub,2013-04-02 19:27:00,
2013-04-02 15:33:00,80.8,62.6,30.03,East,98,1.0,2.0,54,0.00,,,0.00,meteohub,2013-04-02 19:33:00,
2013-04-02 15:38:00,80.6,61.3,30.03,East,98,0.0,2.0,52,0.00,,,0.00,meteohub,2013-04-02 19:38:00,
2013-04-02 15:44:00,80.8,64.0,30.03,East,98,1.0,2.0,57,0.00,,,0.00,meteohub,2013-04-02 19:44:00,
2013-04-02 15:49:00,81.1,63.5,30.03,East,98,0.0,2.0,55,0.00,,,0.00,meteohub,2013-04-02 19:49:00,
2013-04-02 15:54:00,82.0,61.5,30.02,East,98,0.0,5.0,50,0.00,,,0.00,meteohub,2013-04-02 19:54:00,
2013-04-02 16:00:00,82.0,61.5,30.03,East,98,0.0,5.0,50,0.00,,,0.00,meteohub,2013-04-02 20:00:00,
2013-04-02 16:05:00,82.2,61.2,30.03,East,98,1.0,2.0,49,0.00,,,0.00,meteohub,2013-04-02 20:05:00,
2013-04-02 16:11:00,82.4,61.3,30.02,East,98,1.0,2.0,49,0.00,,,0.00,meteohub,2013-04-02 20:11:00,
2013-04-02 16:16:00,82.9,65.7,30.03,East,90,1.0,3.0,56,0.00,,,0.00,meteohub,2013-04-02 20:16:00,
2013-04-02 16:21:00,82.9,66.2,30.03,NE,49,2.0,7.0,57,0.00,,,0.00,meteohub,2013-04-02 20:21:00,
2013-04-02 16:27:00,82.2,66.0,30.03,WNW,296,1.0,7.0,58,0.00,,,0.00,meteohub,2013-04-02 20:27:00,
2013-04-02 16:32:00,81.1,64.9,30.03,WNW,290,6.0,7.0,58,0.00,,,0.00,meteohub,2013-04-02 20:32:00,
2013-04-02 16:37:00,80.2,65.1,30.03,NW,325,4.0,7.0,60,0.00,,,0.00,meteohub,2013-04-02 20:37:00,
2013-04-02 16:42:00,80.4,64.8,30.02,West,278,5.0,8.0,59,0.00,,,0.00,meteohub,2013-04-02 20:42:00,
2013-04-02 16:47:00,79.9,64.8,30.03,West,265,4.0,8.0,60,0.00,,,0.00,meteohub,2013-04-02 20:47:00,
2013-04-02 16:52:00,79.7,64.6,30.03,West,273,6.0,8.0,60,0.00,,,0.00,meteohub,2013-04-02 20:52:00,
2013-04-02 16:57:00,79.3,64.8,30.03,WNW,286,2.0,8.0,61,0.00,,,0.00,meteohub,2013-04-02 20:57:00,
2013-04-02 17:03:00,79.5,64.4,30.03,West,280,5.0,9.0,60,0.00,,,0.00,meteohub,2013-04-02 21:03:00,
2013-04-02 17:08:00,79.2,64.9,30.03,West,267,5.0,10.0,62,0.00,,,0.00,meteohub,2013-04-02 21:08:00,
2013-04-02 17:13:00,79.0,64.4,30.03,WSW,254,1.0,10.0,61,0.00,,,0.00,meteohub,2013-04-02 21:13:00,
2013-04-02 17:19:00,78.8,64.8,30.03,WNW,289,2.0,10.0,62,0.00,,,0.00,meteohub,2013-04-02 21:19:00,
2013-04-02 17:24:00,78.6,64.0,30.03,WNW,301,4.0,9.0,61,0.00,,,0.00,meteohub,2013-04-02 21:24:00,
2013-04-02 17:29:00,78.8,64.2,30.03,West,272,6.0,9.0,61,0.00,,,0.00,meteohub,2013-04-02 21:29:00,
2013-04-02 17:34:00,78.8,63.7,30.03,West,278,4.0,7.0,60,0.00,,,0.00,meteohub,2013-04-02 21:34:00,
2013-04-02 17:39:00,79.2,63.7,30.03,West,273,1.0,7.0,59,0.00,,,0.00,meteohub,2013-04-02 21:39:00,
2013-04-02 17:45:00,79.3,64.2,30.03,NW,317,1.0,6.0,60,0.00,,,0.00,meteohub,2013-04-02 21:45:00,
2013-04-02 17:50:00,78.4,63.9,30.03,WNW,300,2.0,6.0,61,0.00,,,0.00,meteohub,2013-04-02 21:50:00,
2013-04-02 17:55:00,78.6,64.0,30.03,NW,308,4.0,6.0,61,0.00,,,0.00,meteohub,2013-04-02 21:55:00,
2013-04-02 18:00:00,78.1,63.1,30.03,WNW,302,3.0,7.0,60,0.00,,,0.00,meteohub,2013-04-02 22:00:00,
2013-04-02 18:06:00,77.4,63.3,30.03,NW,307,3.0,7.0,62,0.00,,,0.00,meteohub,2013-04-02 22:06:00,
2013-04-02 18:11:00,76.8,63.3,30.03,WNW,300,4.0,8.0,63,0.00,,,0.00,meteohub,2013-04-02 22:11:00,
2013-04-02 18:16:00,76.8,62.8,30.03,WNW,286,4.0,8.0,62,0.00,,,0.00,meteohub,2013-04-02 22:16:00,
2013-04-02 18:21:00,76.8,62.8,30.03,West,276,4.0,8.0,62,0.00,,,0.00,meteohub,2013-04-02 22:21:00,
2013-04-02 18:26:00,76.5,62.1,30.03,West,271,2.0,7.0,61,0.00,,,0.00,meteohub,2013-04-02 22:26:00,
2013-04-02 18:31:00,76.6,62.2,30.03,West,272,4.0,7.0,61,0.00,,,0.00,meteohub,2013-04-02 22:31:00,
2013-04-02 18:37:00,76.6,62.2,30.03,WNW,287,3.0,7.0,61,0.00,,,0.00,meteohub,2013-04-02 22:37:00,
2013-04-02 18:42:00,76.3,62.2,30.03,WNW,296,2.0,8.0,62,0.00,,,0.00,meteohub,2013-04-02 22:42:00,
2013-04-02 18:47:00,76.1,61.7,30.03,WNW,292,2.0,8.0,61,0.00,,,0.00,meteohub,2013-04-02 22:47:00,
2013-04-02 18:52:00,75.9,61.9,30.04,WNW,288,4.0,8.0,62,0.00,,,0.00,meteohub,2013-04-02 22:52:00,
2013-04-02 18:58:00,75.4,61.9,30.04,WNW,291,4.0,7.0,63,0.00,,,0.00,meteohub,2013-04-02 22:58:00,
2013-04-02 19:03:00,75.2,62.6,30.04,WNW,292,2.0,7.0,65,0.00,,,0.00,meteohub,2013-04-02 23:03:00,
2013-04-02 19:08:00,74.8,62.2,30.03,WNW,294,2.0,7.0,65,0.00,,,0.00,meteohub,2013-04-02 23:08:00,
2013-04-02 19:14:00,74.5,62.4,30.03,WNW,294,3.0,7.0,66,0.00,,,0.00,meteohub,2013-04-02 23:14:00,
2013-04-02 19:19:00,74.3,62.2,30.03,WNW,294,2.0,6.0,66,0.00,,,0.00,meteohub,2013-04-02 23:19:00,
2013-04-02 19:24:00,73.9,62.2,30.03,WNW,294,3.0,6.0,67,0.00,,,0.00,meteohub,2013-04-02 23:24:00,
2013-04-02 19:29:00,73.6,61.9,30.03,WNW,294,5.0,5.0,67,0.00,,,0.00,meteohub,2013-04-02 23:29:00,
2013-04-02 19:34:00,73.2,62.1,30.03,WNW,295,1.0,5.0,68,0.00,,,0.00,meteohub,2013-04-02 23:34:00,
2013-04-02 19:40:00,72.9,61.7,30.03,WNW,295,0.0,5.0,68,0.00,,,0.00,meteohub,2013-04-02 23:40:00,
2013-04-02 19:45:00,72.5,61.3,30.03,WNW,295,2.0,5.0,68,0.00,,,0.00,meteohub,2013-04-02 23:45:00,
2013-04-02 19:50:00,72.1,61.3,30.03,WNW,295,1.0,4.0,69,0.00,,,0.00,meteohub,2013-04-02 23:50:00,
2013-04-02 19:55:00,72.0,61.2,30.04,WNW,295,1.0,4.0,69,0.00,,,0.00,meteohub,2013-04-02 23:55:00,
2013-04-02 20:01:00,71.8,61.0,30.04,WNW,295,2.0,4.0,69,0.00,,,0.00,meteohub,2013-04-03 00:01:00,
2013-04-02 20:06:00,71.6,60.8,30.04,WNW,295,1.0,5.0,69,0.00,,,0.00,meteohub,2013-04-03 00:06:00,
2013-04-02 20:11:00,71.4,61.2,30.04,WNW,295,0.0,5.0,70,0.00,,,0.00,meteohub,2013-04-03 00:11:00,
2013-04-02 20:17:00,71.2,61.3,30.05,WNW,295,0.0,5.0,71,0.00,,,0.00,meteohub,2013-04-03 00:17:00,
2013-04-02 20:22:00,71.1,61.2,30.04,WNW,295,2.0,4.0,71,0.00,,,0.00,meteohub,2013-04-03 00:22:00,
2013-04-02 20:27:00,70.7,60.8,30.04,WNW,295,1.0,4.0,71,0.00,,,0.00,meteohub,2013-04-03 00:27:00,
2013-04-02 20:32:00,70.5,61.0,30.04,WNW,295,0.0,4.0,72,0.00,,,0.00,meteohub,2013-04-03 00:32:00,
2013-04-02 20:38:00,70.3,60.8,30.05,WNW,295,0.0,4.0,72,0.00,,,0.00,meteohub,2013-04-03 00:38:00,
2013-04-02 20:43:00,70.3,60.8,30.05,WNW,295,0.0,3.0,72,0.00,,,0.00,meteohub,2013-04-03 00:43:00,
2013-04-02 20:45:00,70.3,60.8,30.05,WNW,295,0.0,2.0,72,0.00,,,0.00,meteohub,2013-04-03 00:45:00,
2013-04-02 20:52:00,70.3,60.8,30.05,WNW,295,0.0,0.0,72,0.00,,,0.00,meteohub,2013-04-03 00:52:00,
2013-04-02 20:57:00,70.2,61.2,30.05,WNW,295,0.0,0.0,73,0.00,,,0.00,meteohub,2013-04-03 00:57:00,
2013-04-02 21:02:00,70.2,61.5,30.05,WNW,295,0.0,0.0,74,0.00,,,0.00,meteohub,2013-04-03 01:02:00,
2013-04-02 21:08:00,69.8,61.9,30.05,WNW,295,0.0,0.0,76,0.00,,,0.00,meteohub,2013-04-03 01:08:00,
2013-04-02 21:13:00,69.4,61.9,30.05,WNW,295,0.0,3.0,77,0.00,,,0.00,meteohub,2013-04-03 01:13:00,
2013-04-02 21:19:00,69.3,62.1,30.05,WNW,295,0.0,3.0,78,0.00,,,0.00,meteohub,2013-04-03 01:19:00,
2013-04-02 21:24:00,69.1,61.9,30.05,WNW,295,0.0,3.0,78,0.00,,,0.00,meteohub,2013-04-03 01:24:00,
2013-04-02 21:30:00,68.5,61.7,30.05,WNW,295,0.0,2.0,79,0.00,,,0.00,meteohub,2013-04-03 01:30:00,
2013-04-02 21:35:00,68.5,61.7,30.05,WNW,295,0.0,1.0,79,0.00,,,0.00,meteohub,2013-04-03 01:35:00,
2013-04-02 21:40:00,68.4,61.2,30.06,WNW,295,0.0,1.0,78,0.00,,,0.00,meteohub,2013-04-03 01:40:00,
2013-04-02 21:46:00,68.4,61.2,30.05,WNW,295,0.0,0.0,78,0.00,,,0.00,meteohub,2013-04-03 01:46:00,
2013-04-02 21:51:00,68.4,61.5,30.05,WNW,295,0.0,0.0,79,0.00,,,0.00,meteohub,2013-04-03 01:51:00,
2013-04-02 21:56:00,68.4,61.5,30.05,WNW,295,0.0,0.0,79,0.00,,,0.00,meteohub,2013-04-03 01:56:00,
2013-04-02 22:02:00,68.2,61.3,30.05,WNW,295,0.0,0.0,79,0.00,,,0.00,meteohub,2013-04-03 02:02:00,
2013-04-02 22:07:00,68.2,61.0,30.05,WNW,295,0.0,0.0,78,0.00,,,0.00,meteohub,2013-04-03 02:07:00,
2013-04-02 22:12:00,68.2,61.0,30.05,WNW,295,0.0,0.0,78,0.00,,,0.00,meteohub,2013-04-03 02:12:00,
2013-04-02 22:17:00,68.2,61.0,30.05,WNW,295,0.0,0.0,78,0.00,,,0.00,meteohub,2013-04-03 02:17:00,
2013-04-02 22:22:00,68.2,61.0,30.05,WNW,295,0.0,0.0,78,0.00,,,0.00,meteohub,2013-04-03 02:22:00,
2013-04-02 22:27:00,68.0,60.8,30.06,WNW,295,0.0,0.0,78,0.00,,,0.00,meteohub,2013-04-03 02:27:00,
2013-04-02 22:33:00,67.8,61.0,30.07,NW,309,0.0,0.0,79,0.00,,,0.00,meteohub,2013-04-03 02:33:00,
2013-04-02 22:38:00,67.8,61.3,30.07,NW,309,0.0,4.0,80,0.00,,,0.00,meteohub,2013-04-03 02:38:00,
2013-04-02 22:43:00,67.8,61.3,30.08,NW,310,0.0,4.0,80,0.00,,,0.00,meteohub,2013-04-03 02:43:00,
2013-04-02 22:49:00,68.0,61.9,30.08,NW,309,0.0,4.0,81,0.00,,,0.00,meteohub,2013-04-03 02:49:00,
2013-04-02 22:54:00,67.8,61.7,30.08,NW,310,0.0,1.0,81,0.00,,,0.00,meteohub,2013-04-03 02:54:00,
2013-04-02 22:59:00,67.8,61.7,30.08,NW,310,0.0,1.0,81,0.00,,,0.00,meteohub,2013-04-03 02:59:00,
2013-04-02 23:04:00,67.8,61.7,30.08,NW,309,0.0,0.0,81,0.00,,,0.00,meteohub,2013-04-03 03:04:00,
2013-04-02 23:10:00,67.8,61.7,30.09,NW,309,0.0,0.0,81,0.00,,,0.00,meteohub,2013-04-03 03:10:00,
2013-04-02 23:15:00,68.0,61.9,30.09,NW,310,0.0,0.0,81,0.00,,,0.00,meteohub,2013-04-03 03:15:00,
2013-04-02 23:20:00,68.0,61.9,30.09,NW,309,0.0,0.0,81,0.00,,,0.00,meteohub,2013-04-03 03:20:00,
2013-04-02 23:25:00,68.2,62.1,30.09,NW,310,0.0,1.0,81,0.00,,,0.00,meteohub,2013-04-03 03:25:00,
2013-04-02 23:31:00,68.4,62.2,30.09,NW,310,0.0,1.0,81,0.00,,,0.00,meteohub,2013-04-03 03:31:00,
2013-04-02 23:36:00,68.2,62.1,30.09,NW,310,0.0,1.0,81,0.00,,,0.00,meteohub,2013-04-03 03:36:00,
2013-04-02 23:41:00,68.2,62.1,30.09,NW,309,2.0,2.0,81,0.00,,,0.00,meteohub,2013-04-03 03:41:00,
2013-04-02 23:46:00,68.0,61.9,30.09,NW,310,0.0,3.0,81,0.00,,,0.00,meteohub,2013-04-03 03:46:00,
2013-04-02 23:52:00,67.8,61.7,30.09,NW,310,0.0,3.0,81,0.00,,,0.00,meteohub,2013-04-03 03:52:00,
2013-04-02 23:57:00,67.8,61.7,30.09,NW,309,0.0,3.0,81,0.00,,,0.00,meteohub,2013-04-03 03:57:00,